Regional Weather Roundup
Issued by NWS Cleveland, OH

Home | Current Version | Previous Version | Graphics & Text | Print | Product List | Glossary On
Versions: 1 2 3 4 5 6 7 8 9 10 11 12 13 14 15 16 17 18 19 20 21 22 23 24 25 26 27 28 29 30 31 32 33 34 35 36 37 38 39 40 41 42 43 44 45 46 47 48 49 50
000
ASUS41 KCLE 281210
RWRCLE
OHIO REGIONAL WEATHER ROUNDUP
NATIONAL WEATHER SERVICE WILMINGTON, OH
800 AM EDT MON JUL 28 2014

NOTE: "FAIR" INDICATES FEW OR NO CLOUDS BELOW 12,000 FEET WITH NO
SIGNIFICANT WEATHER AND/OR OBSTRUCTIONS TO VISIBILITY.

OHZ001>008-015>018-024>027-034-035-043-044-281300-
   NORTHWEST OHIO

CITY           SKY/WX    TMP DP  RH WIND       PRES   REMARKS
DEFIANCE       CLOUDY    65  58  78 N12G21    29.87R
FINDLAY        CLOUDY    63  59  87 NW10      29.82R
TOLEDO EXPRESS CLOUDY    63  58  83 NW13G20   29.83R
TOLEDO METCALF CLOUDY    65  57  75 N15       29.83R
LIMA           CLOUDY    63  59  87 NW12      29.86R
$$

OHZ009>014-019>023-028>033-038-089-281300-
   NORTHEAST OHIO

CITY           SKY/WX    TMP DP  RH WIND       PRES   REMARKS
CLE-HOPKINS    CLOUDY    64  61  90 NW14G22   29.73R
CLE-LAKEFRONT  CLOUDY    66  62  87 NW20G25   29.69R
CUY CO. ARPT   CLOUDY    64  64 100 NW12      29.70R
LORAIN-ELYRIA  CLOUDY    67  61  81 N16G24    29.75R
ASHTABULA      CLOUDY    63  61  93 W7        29.67S
AKRON-CANTON   LGT RAIN  62  58  86 W12       29.73R
WOOSTER        CLOUDY    62  58  86 W12       29.76R
MANSFIELD      CLOUDY    60  59  96 W9        29.80R
YOUNGSTOWN     LGT RAIN  61  61 100 W10       29.69S FOG
$$

OHZ042-051>053-060>062-070>072-077>081-281300-
  SOUTHWEST OHIO

CITY           SKY/WX    TMP DP  RH WIND       PRES   REMARKS
CINC-COVINGTON PTSUNNY   63  59  87 W12       29.90R
CINC-LUNKEN    CLOUDY    65  59  81 W7        29.89R
HAMILTON       CLOUDY    64  60  87 W3        29.90R
DAYTON         MOSUNNY   64  59  83 NW12      29.88R
WRIGHT-PAT AFB CLOUDY    64  60  85 NW6       29.87R
DAYTON GENERAL CLOUDY    64  59  83 NW7       29.88R
WILMINGTON     CLOUDY    63  57  81 NW10      29.86S
$$

OHZ036-037-039>041-045>050-054>059-063>069-073>076-082>088-281300-
  CENTRAL AND SOUTHEAST OHIO

CITY           SKY/WX    TMP DP  RH WIND       PRES   REMARKS
COLUMBUS       CLOUDY    65  58  78 NW12      29.82R
OSU AIRPORT    CLOUDY    63  58  83 NW10      29.83R
BOLTON FIELD   CLOUDY    63  59  88 NW10      29.84R
RICKENBACK AFB CLOUDY    65  56  73 NW13      29.82R
NEWARK         CLOUDY    64  57  78 W12       29.81R
MARION         CLOUDY    62  59  90 NW9       29.82R
LANCASTER      CLOUDY    63  58  83 NW9       29.82R
ZANESVILLE     CLOUDY    64  58  80 W12       29.79R
NEW PHILLY     PTSUNNY   63  59  87 W7        29.76R
$$


USA.gov is the U.S. government's official web portal to all federal, state and local government web resources and services.